Regional Weather Roundup
Issued by NWS Jackson, KY

Current Version | Previous Version | Text Only | Print | Product List | Glossary On
Versions: 1 2 3 4 5 6 7 8 9 10 11 12 13 14 15 16 17 18 19 20 21 22 23 24 25 26 27 28 29 30 31 32 33 34 35 36 37 38 39 40 41 42 43 44 45 46 47 48 49 50
955
ASUS43 KJKL 071110
RWRJKL

EAST KENTUCKY HOURLY WEATHER ROUNDUP
NATIONAL WEATHER SERVICE JACKSON KY
600 AM EST SUN FEB 07 2016

NOTE: "FAIR" INDICATES FEW OR NO CLOUDS BELOW 12,000 FEET WITH
NO SIGNIFICANT WEATHER AND/OR OBSTRUCTIONS TO VISIBILITY.

* THESE REPORTS ARE NOT UNDER NWS QUALITY CONTROL AND MAY NOT
  REPORT WEATHER SUCH AS PRECIPITATION AND FOG.

KYZ079-080-083-085-087-088-110-112-115-119-120-071200
...EASTERN KENTUCKY...

CITY           SKY/WX    TMP DP  RH WIND       PRES   REMARKS
JACKSON        CLEAR     30  21  69 S3        30.16R
LONDON         CLEAR     24  20  84 CALM      30.18R
SOMERSET*      CLEAR     23  23 100 CALM      30.20S
MONTICELLO*    CLEAR     18  16  92 CALM      30.20S
WILLIAMSBURG*  SUNNY     27  25  93 CALM      30.19R
MIDDLESBORO*   CLEAR     25  24  96 CALM      30.21R
HARLAN APT*      N/A     27  25  93 CALM      30.18R
HAZARD APT*    SUNNY    N/A N/A N/A CALM      30.18R
BLACK MTN*       N/A     27  21  80 VRB8        N/A  WCI  18
BIG SANDY*     SUNNY     32  23  70 CALM      30.17R
MOREHEAD APT*  MOSUNNY   28  23  80 S3        30.17S
$$

KYZ035-036-041-042-044-050-067-078-099-071200
...CENTRAL KENTUCKY...

CITY           SKY/WX    TMP DP  RH WIND       PRES   REMARKS
MT STERLING*   CLEAR     30  23  74 W6        30.16S WCI  24
DANVILLE*      CLEAR     30  21  69 W3        30.17S
RICHMOND*      CLEAR     34  21  60 SW3       30.15S
LEXINGTON      CLEAR     31  21  66 SW5       30.15F WCI  26
FRANKFORT      CLEAR     24  19  81 SW3       30.14F
$$

KYZ091>093-OHZ055-061-077-WVZ005-015-034-035-042-071200
...SOUTHERN OHIO/WEST VIRGINIA...

CITY           SKY/WX    TMP DP  RH WIND       PRES   REMARKS
COVINGTON      CLEAR     32  23  69 SW7       30.12F WCI  26
COLUMBUS       CLEAR     26  19  74 SE3       30.11F
DAYTON         CLEAR     33  24  69 SW10      30.08F WCI  25
WILMINGTON     CLEAR     30  23  75 S6        30.11F WCI  24
HUNTINGTON       N/A     25  21  85 E5        30.16R WCI  19
CHARLESTON       N/A     25  21  85 CALM      30.17R
PINEVILLE*       N/A     25  21  87 MISG      30.22R
BECKLEY          N/A     25  16  68 VRB3      30.14R
$$

VAZ002-007-008-TNZ017-027-036-066-071-071200
...SOUTHWEST VIRGINIA/EAST TENNESSEE...

CITY           SKY/WX    TMP DP  RH WIND       PRES   REMARKS
BRISTOL        CLOUDY    22  19  89 SE3       30.18F
KNOXVILLE      PTCLDY    28  21  75 CALM      30.19R
OAK RIDGE      CLEAR     28  24  85 CALM      30.20R
CROSSVILLE     CLEAR     27  21  78 CALM      30.16S
NASHVILLE      CLEAR     28  23  81 S3        30.21S
$$

...KEY TO REMARKS...
VSB - VISIBILITY IN MILES
WCI - WIND CHILL INDEX
HX  - HEAT INDEX

$$




USA.gov is the U.S. government's official web portal to all federal, state and local government web resources and services.